Location: La Brionne
(46.1728°N, 1.7849°E)
Time: 19:12:33
(UTC+00:00)

USA 267 - Pass Details

Date: 27 October 2021
Orbit: 1101 x 1107 km, 123.0° (Epoch: 27 November)

Event Time Altitude Azimuth Distance (km) Brightness Sun altitude
Exits shadow 19:17:10 16° 170° (S) 2,513 4.9 -26.7°
Maximum altitude 19:21:49 38° 230° (SW) 1,619 4.4 -27.5°
Drops below altitude 10° 19:27:49 10° 297° (WNW) 2,962 6.4 -28.5°
Sets 19:30:32 0° 305° (NW) 3,923 7.1 -29.0°
